sat.trackr.live / text

‹ back to catalog

STARLINK-31171

NORAD 58834 · 2024-017J

PAYLOAD ACTIVE UNKNOWN

§ Identity

Operator
Country
US
Launch date
2024-01-24
Launch site
AFWTR
Launch vehicle
Mass (kg)
RCS (m²)

Purposes: comms

External: N2YO · Heavens-Above · Gunter

§ Orbital elements

Epoch: 2026-09-20T13:43:16.542336Z

Period
93.85 min
Inclination
53.1626°
Eccentricity
0.0001665
Mean motion
15.34397516 rev/d
Perigee alt
461.6 km
Apogee alt
463.8 km
Semi-major
6,840.8 km
B*
5.0473e-5
RAAN
353.1296°
Arg perigee
71.2928°
Mean anomaly
288.8255°
Rev number
15,025

§ Raw data

STARLINK-311711 58834U 24017J   26263.57171924  .00001329  00000+0  50473-4 0  99942 58834  53.1626 353.1296 0001665  71.2928 288.8255 15.34397516150254

JSON: /api/v1/satellites/58834 · /tle

For live sub-satellite position, see the globe view (requires WebGL).

§ Visibility from observer

Set your observer location to see the next 7 days of passes ≥ 10°. The values pass through the URL so the page stays shareable.

No JS? Fill the form by hand. The geolocation button needs JavaScript.